Terminal Aerodrome Forecast
Issued by NWS

Home | Current Version | Previous Version | Graphics & Text | Print | Product List | Glossary On
Versions: 1 2 3 4 5 6 7 8 9 10 11 12 13 14 15 16 17 18 19
000
FTUS45 KGGW 031400 AAB
TAFSDY
TAF AMD
KSDY 031426Z 0314/0412 VRB06KT 3SM FU SCT200
     FM032100 15006KT P6SM SCT070
     FM040300 18006KT P6SM SCT200
      AMD LTD TO CLD VIS AND WIND=

USA.gov is the U.S. government's official web portal to all federal, state and local government web resources and services.